Wind_Speed
19 18 17 17 16 14 13 12 12 12 12 11 9 9 9 9 9 10 9 8 7 7 7 6 6 7 7 7 8 7 7 8 7 6 7 6 6 5 5 5 4 4
20 19 19 17 17 16 15 14 13 13 13 12 11 10 10 10 10 10 10 9 8 7 7 7 7 7 6 6 7 7 7 8 7 6 6 7 7 6 6 6 5 6
21 20 20 18 17 17 15 15 14 14 13 13 13 11 10 11 11 11 10 10 9 8 8 8 8 7 7 6 6 7 7 7 7 6 6 7 7 6 6 6 6 6
21 21 20 19 17 16 16 16 15 15 14 14 13 13 12 11 12 12 12 11 10 10 10 9 9 8 8 7 7 7 7 7 8 8 8 6 7 7 6 6 7 7
21 21 21 20 18 17 17 17 17 16 15 14 14 13 14 13 12 12 12 12 12 11 11 10 10 10 9 8 8 8 8 7 7 8 8 7 7 7 6 7 7 7
20 20 21 21 20 20 19 18 18 17 16 15 15 14 14 15 14 13 13 13 12 11 11 11 11 11 10 9 9 9 8 8 8 8 7 7 7 7 6 7 8 8
20 20 20 21 22 22 21 19 18 18 17 16 16 15 15 15 15 16 15 14 13 12 12 12 12 12 12 11 10 10 9 9 9 9 8 7 8 8 8 8 8 8
20 19 19 20 21 22 22 21 20 20 19 18 17 17 17 16 16 16 16 15 15 14 13 13 14 14 13 12 12 11 10 10 10 9 8 8 8 8 9 9 9 8
21 20 19 19 20 21 22 22 21 20 20 20 19 18 18 18 17 16 17 18 17 16 16 15 16 16 15 14 14 13 12 11 11 11 10 9 9 9 9 9 10 9
23 22 20 20 20 20 21 22 22 21 21 21 20 19 19 19 19 18 18 20 20 19 18 18 17 17 16 15 15 15 14 13 13 13 12 11 11 10 10 11 11 11
24 23 21 21 21 20 20 21 21 21 21 22 21 21 20 20 20 20 20 21 22 21 21 20 19 18 17 16 16 15 15 14 13 13 13 12 12 12 12 13 13 12
23 23 22 22 22 21 20 20 21 21 22 22 22 22 21 21 21 21 22 23 24 23 22 22 21 20 20 19 17 16 15 15 14 14 13 13 12 12 13 13 13 13
22 22 23 23 23 22 21 20 20 21 22 22 22 22 23 22 22 22 23 24 25 24 23 23 23 22 22 22 20 18 17 17 16 15 14 14 13 13 13 13 13 14
20 20 21 22 23 24 23 22 21 21 22 22 22 23 23 23 23 23 23 23 24 25 24 24 24 24 24 24 23 22 20 19 18 17 16 16 15 15 14 14 14 14
18 19 20 21 22 24 25 24 23 22 22 23 23 23 23 23 24 24 23 23 23 25 25 25 25 26 26 26 26 26 24 22 21 20 19 18 17 17 16 16 16 16
17 18 19 20 21 23 25 26 26 24 24 24 24 24 23 23 24 24 24 24 24 24 25 26 26 27 29 29 28 28 27 26 24 23 22 21 21 20 20 19 18 18
17 17 17 19 20 22 24 25 25 26 26 26 26 25 25 24 24 25 25 24 24 24 25 26 27 28 30 31 30 29 29 29 28 26 25 25 25 24 24 23 21 20
19 18 18 19 20 21 23 24 24 24 25 27 27 27 27 27 26 26 26 26 25 25 25 26 26 28 30 32 32 31 30 31 30 28 26 27 27 27 27 27 26 24
18 18 19 20 20 21 23 23 24 24 24 26 27 27 28 28 28 28 28 28 27 26 26 26 26 27 30 33 34 33 32 32 32 30 28 26 26 27 27 28 29 29
16 17 18 19 20 21 23 24 24 25 25 24 26 27 28 29 30 30 30 31 30 30 29 28 27 27 29 31 34 34 34 34 35 34 33 31 29 28 27 27 28 31
14 16 18 19 19 21 24 24 24 24 25 25 25 26 28 29 30 30 31 32 33 33 32 31 30 29 30 31 32 34 35 35 36 37 38 37 37 35 34 32 31 31
17 18 19 19 20 22 24 25 24 24 24 25 25 26 27 28 29 29 30 31 32 33 34 34 33 33 34 35 35 36 36 36 36 37 38 39 41 40 39 39 38 36
20 21 21 20 21 22 24 24 25 24 24 24 25 25 25 26 27 27 28 29 30 32 34 34 34 35 36 38 38 37 37 36 36 36 36 38 40 41 41 41 42 42
16 21 24 25 24 24 25 26 27 26 25 25 24 23 24 25 25 25 25 26 27 29 31 33 34 35 37 38 38 37 37 36 36 36 36 37 38 40 41 42 43 44
10 13 19 23 26 26 25 26 27 26 25 24 23 22 22 21 22 24 24 25 26 27 29 31 33 34 36 37 37 37 36 36 36 36 37 37 37 38 39 40 42 43
11 11 12 16 20 25 25 24 25 26 26 24 22 20 20 20 20 23 24 25 27 27 28 29 31 32 34 36 37 37 36 36 36 36 37 37 38 38 38 39 40 42
Wind_Direction
214 214 212 211 207 201 200 204 203 197 196 194 195 196 191 188 186 188 195 197 192 190 192 188 187 185 180 183 183 182 185 176 184 212 208 204 204 202 217 214 210 213
215 215 215 214 211 208 203 202 205 204 201 196 194 196 197 197 196 194 197 199 194 194 196 191 189 191 185 186 186 181 187 180 179 206 211 202 204 208 219 221 220 222
216 215 216 213 212 212 208 204 206 206 205 202 198 195 195 200 204 201 201 202 198 196 199 199 196 198 195 194 190 186 194 186 177 203 219 204 201 210 219 223 225 232
216 216 217 212 207 209 208 207 209 208 206 206 205 200 194 197 205 207 205 203 204 203 202 204 203 204 203 199 195 194 202 195 184 198 212 205 201 207 213 219 222 228
214 215 216 212 204 205 207 206 209 210 208 208 208 206 203 201 201 208 210 206 206 208 208 207 207 207 208 204 199 201 206 204 200 201 201 203 209 207 209 219 219 218
213 212 215 214 207 204 206 206 208 209 209 209 208 207 211 211 204 204 210 209 207 210 211 213 214 211 211 211 205 208 210 204 210 216 207 208 215 208 211 228 226 218
215 213 213 214 212 208 208 207 208 208 207 209 210 207 209 216 217 212 210 209 207 207 209 213 218 214 212 215 212 212 213 206 211 218 212 214 221 210 209 228 235 226
216 217 216 214 211 211 211 208 208 210 206 205 209 211 209 211 219 219 215 215 211 208 207 211 218 216 210 215 219 218 215 212 218 225 218 216 223 220 213 220 233 233
215 215 218 217 209 208 211 209 210 211 209 207 207 211 214 213 214 214 217 222 220 215 213 212 217 219 211 210 218 222 219 213 216 227 229 224 224 229 226 223 230 235
215 212 213 213 207 206 209 209 210 211 212 213 209 209 214 217 217 212 214 224 227 224 223 220 219 221 218 214 217 222 222 217 214 219 226 229 227 229 231 230 231 234
215 211 209 209 207 207 209 209 210 211 213 216 214 211 211 216 222 218 213 222 230 229 229 229 226 224 224 221 220 224 225 223 222 223 224 228 229 228 229 231 231 233
212 210 208 210 209 209 210 210 210 211 213 216 216 215 212 211 219 222 218 223 232 233 230 232 232 229 228 226 220 221 226 225 223 226 227 227 228 230 231 232 233 234
209 210 210 211 212 212 211 211 213 213 213 215 217 217 216 213 214 219 221 224 232 235 232 233 235 233 232 232 224 218 221 226 223 223 228 228 227 229 231 234 235 236
208 210 212 212 213 215 214 212 214 215 214 215 217 217 217 217 214 216 220 222 229 234 232 231 235 237 235 234 231 223 218 223 225 223 225 228 230 230 230 232 234 235
210 212 214 213 213 215 217 216 214 215 216 215 216 218 218 218 217 217 219 219 221 229 231 228 230 236 238 235 234 230 224 222 226 227 226 227 229 232 232 233 235 236
215 216 217 216 214 214 219 222 218 215 217 217 216 218 218 219 218 218 219 219 218 222 228 228 226 231 238 238 235 234 231 227 227 229 232 231 231 233 236 236 237 239
220 219 221 219 218 216 219 227 225 219 217 219 219 219 219 219 218 218 218 219 220 220 223 227 226 228 235 240 239 236 234 232 231 232 235 238 238 238 241 242 241 241
227 223 224 222 221 220 221 230 234 228 220 219 220 220 220 220 220 220 220 220 221 223 224 226 228 228 234 241 243 240 237 235 234 233 235 239 242 243 245 247 247 245
237 233 231 227 225 226 227 232 238 236 229 223 221 221 222 223 224 224 226 226 225 224 225 227 230 231 234 241 245 244 241 237 235 234 233 236 240 243 245 246 248 249
240 241 242 239 234 231 231 233 237 240 238 230 223 222 222 225 229 231 233 236 235 231 229 229 231 233 236 242 247 247 244 241 239 238 238 238 239 240 241 243 247 250
235 238 244 246 242 236 234 234 236 238 239 233 225 222 223 227 232 236 237 241 243 240 237 234 233 233 235 239 245 248 247 245 242 241 241 242 243 243 243 243 244 246
237 236 240 243 243 240 237 235 233 231 233 233 230 225 224 227 232 236 237 239 242 242 241 240 237 235 236 238 242 246 249 250 249 247 245 245 246 246 246 246 246 246
239 238 240 242 242 242 240 238 237 233 231 234 234 230 227 226 229 234 236 236 238 240 241 241 240 238 240 242 244 246 249 251 252 252 250 249 247 247 248 248 249 249
247 242 242 243 243 243 244 242 241 239 235 234 235 235 233 230 229 232 234 235 236 237 238 240 241 241 241 243 245 246 247 248 249 250 250 251 250 249 249 249 250 251
290 263 252 251 248 248 252 249 245 246 244 237 235 236 237 237 236 235 236 237 237 237 238 239 240 241 242 244 244 244 245 246 247 248 249 250 251 251 251 251 251 252
325 305 283 273 261 257 261 259 251 253 256 249 243 240 237 238 238 235 235 237 237 237 238 239 240 241 242 244 244 244 244 245 246 247 248 249 251 252 253 254 254 254
Height
1578 1579 1582 1583 1585 1587 1589 1590 1591 1592 1594 1595 1596 1597 1598 1599 1600 1601 1602 1602 1603 1604 1605 1606 1606 1607 1608 1608 1609 1609 1610 1611 1612 1612 1612 1613 1613 1614 1615 1615 1615 1616
1576 1578 1580 1582 1583 1585 1587 1589 1590 1591 1592 1594 1595 1596 1597 1598 1599 1600 1601 1602 1603 1603 1604 1605 1606 1606 1607 1608 1608 1609 1609 1610 1611 1612 1612 1612 1613 1613 1614 1615 1615 1615
1574 1576 1578 1580 1582 1584 1586 1588 1589 1590 1592 1593 1594 1595 1596 1597 1598 1599 1600 1601 1602 1603 1603 1604 1605 1606 1606 1607 1608 1608 1609 1609 1610 1611 1611 1611 1612 1613 1614 1614 1615 1615
1571 1574 1576 1578 1581 1583 1585 1586 1587 1589 1591 1592 1593 1594 1595 1597 1597 1598 1599 1600 1601 1602 1603 1604 1604 1605 1606 1606 1607 1608 1608 1609 1609 1610 1610 1611 1611 1612 1613 1613 1614 1614
1569 1571 1574 1576 1579 1581 1583 1585 1586 1588 1589 1591 1592 1593 1594 1595 1596 1597 1598 1599 1600 1601 1602 1603 1603 1604 1605 1605 1606 1607 1607 1608 1608 1609 1609 1610 1611 1611 1612 1613 1613 1613
1567 1569 1571 1574 1576 1579 1581 1583 1585 1586 1588 1589 1591 1592 1593 1593 1595 1596 1597 1598 1599 1600 1601 1602 1603 1603 1604 1605 1605 1606 1606 1607 1608 1608 1609 1609 1610 1610 1611 1612 1611 1612
1565 1567 1569 1571 1574 1576 1578 1580 1582 1584 1586 1588 1589 1591 1592 1592 1593 1594 1596 1597 1598 1599 1601 1602 1602 1602 1603 1604 1604 1605 1605 1606 1607 1607 1608 1608 1609 1609 1610 1611 1610 1611
1564 1565 1567 1569 1571 1574 1576 1578 1580 1582 1584 1586 1587 1589 1590 1591 1592 1593 1594 1595 1596 1598 1599 1600 1601 1601 1602 1603 1603 1604 1604 1605 1606 1606 1606 1607 1608 1608 1608 1609 1609 1610
1562 1564 1566 1567 1570 1572 1573 1576 1578 1579 1581 1583 1585 1587 1588 1589 1591 1592 1593 1593 1595 1596 1597 1598 1599 1599 1601 1601 1602 1603 1603 1604 1605 1605 1606 1606 1606 1607 1607 1608 1608 1609
1560 1562 1564 1566 1568 1570 1571 1574 1576 1578 1579 1580 1582 1585 1586 1587 1588 1590 1591 1591 1592 1594 1595 1596 1597 1598 1599 1600 1601 1601 1602 1603 1603 1604 1604 1605 1605 1606 1606 1607 1607 1607
1557 1560 1562 1564 1566 1568 1570 1572 1574 1576 1577 1578 1580 1582 1584 1585 1586 1587 1589 1589 1590 1592 1593 1594 1595 1596 1597 1598 1599 1600 1600 1601 1602 1602 1603 1603 1604 1604 1605 1605 1606 1606
1555 1557 1560 1561 1564 1566 1568 1570 1572 1573 1575 1576 1578 1580 1581 1583 1584 1584 1586 1587 1588 1589 1591 1592 1593 1594 1595 1596 1598 1599 1599 1600 1601 1601 1601 1602 1602 1603 1603 1604 1604 1605
1552 1554 1557 1559 1561 1563 1565 1568 1569 1571 1573 1574 1576 1577 1578 1580 1582 1582 1583 1584 1585 1587 1588 1589 1590 1592 1593 1594 1595 1597 1598 1598 1599 1599 1600 1600 1601 1601 1602 1602 1603 1603
1550 1552 1554 1556 1559 1560 1562 1565 1567 1568 1570 1572 1573 1574 1576 1578 1579 1580 1581 1582 1583 1584 1586 1587 1588 1589 1590 1591 1592 1594 1595 1596 1597 1598 1598 1599 1599 1599 1600 1601 1601 1601
1548 1550 1551 1553 1556 1557 1559 1561 1563 1566 1567 1569 1570 1571 1573 1575 1576 1578 1579 1580 1580 1581 1582 1584 1585 1585 1586 1588 1589 1591 1592 1594 1594 1595 1596 1597 1597 1597 1598 1598 1599 1599
1546 1547 1549 1551 1552 1554 1556 1557 1560 1562 1564 1565 1567 1568 1570 1572 1573 1575 1576 1577 1578 1578 1579 1581 1581 1582 1583 1584 1586 1587 1589 1590 1591 1592 1593 1594 1594 1595 1595 1596 1596 1597
1543 1545 1546 1548 1550 1551 1553 1554 1556 1558 1560 1562 1564 1565 1567 1568 1570 1571 1573 1574 1575 1576 1576 1577 1578 1579 1579 1580 1582 1584 1586 1587 1588 1589 1589 1590 1591 1591 1592 1593 1593 1594
1540 1542 1543 1545 1547 1548 1550 1551 1553 1555 1556 1558 1560 1561 1563 1565 1566 1567 1569 1571 1572 1573 1573 1574 1574 1575 1576 1576 1578 1581 1583 1584 1585 1586 1587 1587 1587 1588 1588 1589 1590 1590
1538 1539 1541 1542 1544 1546 1547 1548 1549 1551 1552 1554 1556 1558 1560 1561 1562 1564 1565 1566 1568 1569 1570 1571 1572 1572 1573 1573 1575 1577 1579 1581 1582 1583 1584 1584 1585 1585 1585 1585 1586 1586
1536 1537 1539 1540 1541 1543 1544 1545 1546 1547 1548 1550 1552 1554 1555 1556 1557 1559 1560 1562 1563 1565 1566 1568 1569 1570 1570 1570 1571 1572 1575 1577 1578 1579 1580 1581 1581 1582 1582 1582 1582 1583
1534 1535 1536 1537 1538 1540 1541 1542 1543 1543 1544 1546 1548 1549 1550 1551 1552 1554 1555 1557 1558 1560 1562 1563 1565 1566 1567 1567 1567 1568 1570 1572 1574 1575 1576 1576 1577 1578 1578 1579 1579 1579
1531 1532 1533 1534 1535 1536 1537 1538 1538 1539 1540 1542 1543 1545 1547 1547 1548 1549 1551 1552 1553 1555 1557 1558 1559 1561 1562 1563 1564 1565 1566 1568 1569 1570 1571 1572 1572 1573 1574 1575 1575 1576
1528 1530 1531 1531 1532 1533 1533 1534 1535 1535 1537 1538 1539 1541 1543 1545 1546 1546 1547 1548 1549 1550 1552 1553 1554 1556 1557 1558 1559 1561 1562 1563 1564 1565 1566 1567 1568 1569 1569 1570 1571 1571
1526 1527 1528 1529 1530 1530 1530 1530 1531 1533 1535 1536 1537 1539 1541 1542 1544 1544 1545 1546 1546 1547 1547 1548 1549 1551 1552 1553 1554 1556 1557 1559 1560 1561 1561 1562 1563 1564 1565 1566 1566 1567
1525 1525 1526 1526 1527 1527 1526 1527 1529 1531 1532 1533 1534 1537 1539 1540 1542 1543 1543 1543 1543 1544 1544 1544 1545 1546 1547 1548 1549 1551 1553 1554 1555 1556 1557 1557 1558 1559 1560 1561 1561 1562
1524 1524 1524 1524 1525 1525 1525 1526 1529 1530 1531 1532 1534 1536 1538 1538 1538 1538 1539 1540 1540 1540 1540 1540 1541 1541 1542 1543 1544 1546 1548 1550 1551 1552 1552 1553 1554 1555 1556 1556 1557 1557